Greenville, ME

2:28 AM EST on December 06, 2016 (GMT -0500)
Greenville

Weather History for KGNR - April, 2013

Change the Weather History Date:

Tuesday, April 23, 2013

  Actual Average (KMLT) Record (KMLT)
Temperature  
Mean Temperature 36 °F 45 °F  
Max Temperature 48 °F 55 °F 80 °F (2007)
Min Temperature 25 °F 34 °F 17 °F (1933)
Degree Days  
Heating Degree Days 28 20  
Month to date heating degree days 592  
Since 1 July heating degree days 7791  
Cooling Degree Days 0 0  
Month to date cooling degree days 0  
Year to date cooling degree days 0  
Moisture  
Dew Point 26 °F    
Average Humidity 68    
Maximum Humidity 100    
Minimum Humidity 34    
Precipitation  
Precipitation 0.02 in 0.11 in 1.98 in (2012)
Month to date precipitation 2.79  
Year to date precipitation 10.96  
Sea Level Pressure  
Sea Level Pressure 30.47 in    
Wind  
Wind Speed 5 mph (SE)    
Max Wind Speed 12 mph    
Max Gust Speed 20 mph    
T = Trace of Precipitation, MM = Missing Value Source: NWS Daily Summary

Daily Weather History Graph

Daily Weather History Graph

Search for Another Location

Airport or City:

Trip Planner

Search our weather history database for the weather conditions in past years. The results will help you decide how hot, cold, wet, or windy it might be!

Date:

Astronomy

Apr. 23, 2013 Rise Set
Actual Time 5:38 AM EDT 7:35 PM EDT
Civil Twilight 5:07 AM EDT 8:07 PM EDT
Nautical Twilight 4:28 AM EDT 8:46 PM EDT
Astronomical Twilight 3:45 AM EDT 9:29 PM EDT
Moon 5:21 PM EDT (4/23) 4:11 AM EDT (4/23)
Length of Visible Light 14h 59m
Length of Day
13h 56m
Waxing Gibbous, 94% of the Moon is Illuminated
Apr 23
Waxing Gibbous
Apr 25
Full
May 2
Last Quarter
May 9
New
May 18
First Quarter

Hourly Weather History & Observations

Time (EDT) Temp. Windchill Dew Point Humidity Pressure Visibility Wind Dir Wind Speed Gust Speed Precip Events Conditions
12:56 AM 28.9 °F 25.2 °F 24.1 °F 82% 30.64 in - Variable 3.5 mph - N/A   Unknown
1:56 AM 28.0 °F - 24.1 °F 85% 30.62 in - Calm Calm - N/A   Unknown
2:56 AM 27.0 °F - 24.1 °F 89% 30.61 in - Calm Calm - N/A   Unknown
3:56 AM 27.0 °F 21.6 °F 23.0 °F 85% 30.59 in - ESE 4.6 mph - N/A   Unknown
4:56 AM 25.0 °F 19.3 °F 21.0 °F 85% 30.58 in - East 4.6 mph - N/A   Unknown
5:56 AM 27.0 °F 23.0 °F 19.9 °F 75% 30.57 in - ESE 3.5 mph - N/A   Unknown
6:56 AM 28.9 °F 21.9 °F 21.0 °F 72% 30.57 in - East 6.9 mph - N/A   Unknown
7:56 AM 33.1 °F 27.7 °F 21.9 °F 64% 30.57 in - SE 5.8 mph - N/A   Unknown
8:56 AM 35.1 °F 27.4 °F 21.0 °F 57% 30.57 in - ESE 10.4 mph - N/A   Unknown
9:56 AM 36.0 °F 28.0 °F 21.9 °F 57% 30.55 in - ESE 11.5 mph - N/A   Unknown
10:56 AM 37.9 °F 33.5 °F 21.0 °F 51% 30.52 in - Variable 5.8 mph - N/A   Unknown
11:56 AM 43.0 °F 39.5 °F 17.1 °F 35% 30.48 in - Variable 5.8 mph 16.1 mph N/A   Unknown
12:56 PM 45.0 °F 39.7 °F 18.0 °F 34% 30.46 in - SSE 10.4 mph 17.3 mph N/A   Unknown
1:56 PM 46.9 °F - 21.0 °F 36% 30.43 in - SSE 10.4 mph 19.6 mph N/A   Unknown
2:56 PM 46.9 °F - 19.9 °F 34% 30.41 in - SE 4.6 mph 19.6 mph N/A   Unknown
3:56 PM 48.0 °F - 21.9 °F 36% 30.39 in - Variable 6.9 mph - N/A   Unknown
4:56 PM 46.0 °F 42.5 °F 26.1 °F 46% 30.38 in - South 6.9 mph - N/A   Unknown
5:56 PM 44.1 °F 42.5 °F 28.0 °F 53% 30.37 in - Variable 3.5 mph - N/A   Unknown
6:56 PM 42.1 °F 38.4 °F 33.1 °F 70% 30.36 in - SE 5.8 mph - N/A   Unknown
7:56 PM 39.0 °F 33.4 °F 37.9 °F 96% 30.35 in - SE 8.1 mph - N/A   Unknown
8:56 PM 37.9 °F 34.4 °F 37.9 °F 100% 30.35 in - Variable 4.6 mph - 0.01 in   Unknown
9:56 PM 37.9 °F 33.5 °F 37.0 °F 97% 30.32 in - ESE 5.8 mph - 0.01 in   Unknown
10:56 PM 37.9 °F 33.5 °F 37.0 °F 97% 30.28 in - SE 5.8 mph - N/A   Unknown
11:56 PM 37.9 °F - 37.0 °F 97% 30.26 in - Calm Calm - N/A   Unknown